PRAETORIAN SDA_606

Last updated on Fri Jun 19 2026 17:10:16 GMT+0000 (Coordinated Universal Time)

1 65569U 25203E 26168.30750804 .00000053 00000+0 37439-4 0 9990 2 65569 81.3055 10.8712 0005744 180.4388 179.6764 13.83407378 38708
UTC large
Height (km)
Speed (km/s)
/
Latitude / Longitude
Inclination (degrees)
Orbital Period (minutes)
Azimuth
Elevation
Range (km)
Doppler Factor

Next 0 passes for location: London (51.5072 / 0.1276)

No passes found over London.
PRAETORIAN SDA_606